DECAYED
Showing default

FLOCK 4X 15, 51010 (Decayed)

Orbit data source: Space-Track

FLOCK 4X 15, 51010 was a payload satellite owned by Planet (US) in LEO that was launched on Thu, 13 Jan 2022 UTC via an FALCON 9 launch vehicle from the Air Force Eastern Test Range (AFETR). Payload-class satellites include a variety of spacecraft equipped with specific instruments for various scientific and technological missions. These include communications satellites like Starlink; space stations such as the ISS; scientific satellites like the Hubble; Earth observation satellites from companies like Planet Labs, Umbra, and HawkEye 360; GPS; miniature CubeSats for education and research; and military/defense satellites.

Not visible in the next 10 days
Identifier
51010, 2022-002AC
Orbit
Decayed
Last TLE update
1 year ago
Origin
Manufacturer
Planet
Mission
Decayed Commercial Imaging
Bus & Motor
CUBESAT 3U, Unknown motor
Mass
5.7 kg wet, 5.7 kg dry
Launch date (UTC)
2022-01-13 (4 years ago)
Launch vehicle
FALCON 9
Launch site
Air Force Eastern Test Range (AFETR)
Object type
Payload
Rocket body
Debris
Shape & HBR
Box + 2 Pan, 0.1 m
Radar Cross Section
0.108 m², Small (<0.1 m²)

Expand to show TLE details & history

TLE from 1 year ago
0 FLOCK 4X 15
1 51010U 22002AC  24171.46334114  .13298780  25335-5  63925-3 0  9993
2 51010  97.3612 253.7253 0014797 264.6406  95.3207 16.41447589135767
Epoch: 2024-06-19T11:07Z
TLE epoch observation values (Epoch: 2024-06-19T11:07:12.674Z)
Latitude
0.00006°
Longitude
178.75311°
Altitude
166.121 km
Speed
7.806 km/s
True Right ascension
16h 54m 54s
True Declination
0° 00' 00"
Sunlit
Object was in full shadow at epoch
Visualization orbit readout
Visualization observer readout
Orbital elements
Apogee altitude
168.431 km
Perigee altitude
149.086 km
Semi-major axis
6,536.896 km
Eccentricity
0.00148
Inclination
97.3612°
RAAN
253.7253°
Arg. of periapsis
264.6406°
True anomaly
95.4895°
Mean anomaly
95.3207°
Eccentric anomaly
95.4051°
Mean motion
4.10663 °/min
Orbital period
87.66 mins
BSTAR
0.00063925
Loading maneuver chart data...
Loading SW <> Apogee altitude chart data...
|